Location: Keppel Henge
(44.7900°N, 80.9447°W)
Time: 01:57:09
(UTC-04:00)

Tiangong 2 - Pass Details

Date: 10 October 2017
Orbit: 388 x 391 km, 42.8° (Epoch: 22 October)

Event Time Altitude Azimuth Distance (km) Brightness Sun altitude
Exits shadow 05:33:38 19° 151° (SSE) 999 3.3 -21.9°
Drops below altitude 10° 05:35:55 10° 105° (ESE) 1,421 4.8 -21.5°
Sets 05:38:22 0° 87° (E) 2,280 6.5 -21.1°
